{"data":{"norad_id":68196,"epoch":"2026-09-20T00:19:08.404608Z","epoch_age_seconds":117404,"freshness":"FRESH","line1":"1 68196U 26051A   26263.01329172  .00000293  00000+0  95611-4 0  9997","line2":"2 68196 141.9927  65.5635 0000633 289.5312  70.5339 13.83257198 26133","mean_motion":13.83257198,"eccentricity":6.33e-5,"inclination_deg":141.9927,"raan_deg":65.5635,"arg_perigee_deg":289.5312,"mean_anomaly_deg":70.5339,"bstar":9.5611e-5,"rev_number":2613,"period_min":104.10211507173,"perigee_km":951.89252120772,"apogee_km":952.82056169007,"semimajor_km":7330.4935414489,"source":"CELESTRAK","updated_at":"2026-09-20T09:00:24.067281Z"}}